EHI
0 0 0 0 0 0 0 0 0 0 0 0 0 0 0 0 0 0 0 0 0 0 0 0 0 0 0 0 0 0 0 0 0 0 0 1 3 5 6 7 7 6 9 11
0 0 0 0 0 0 0 0 0 0 0 0 0 0 0 0 0 0 0 0 0 0 0 0 0 0 0 0 0 0 0 0 0 0 0 1 3 4 5 5 5 4 6 7
0 0 0 0 0 0 0 0 0 0 0 0 0 0 0 0 0 0 0 0 0 0 0 0 0 0 0 0 0 0 0 0 0 0 0 1 3 4 4 4 3 2 3 4
0 0 0 0 0 0 0 0 0 0 0 0 0 0 0 0 0 0 0 0 0 0 0 0 0 0 0 0 0 0 0 0 0 0 0 1 1 2 3 3 2 1 1 2
0 0 0 0 0 0 0 0 0 0 0 0 0 0 0 0 0 0 0 0 0 0 0 0 0 0 0 0 0 0 0 0 1 1 1 0 0 0 1 1 1 0 0 1
0 0 0 0 0 0 0 0 0 0 0 0 0 0 0 0 0 0 0 0 0 0 0 0 0 0 0 0 0 0 0 0 1 2 2 1 0 0 0 0 0 0 0 0
0 0 0 0 0 0 0 0 0 0 0 0 0 0 0 0 0 0 0 0 0 0 0 0 0 0 0 0 0 0 0 0 0 1 1 1 0 0 0 1 0 0 0 0
0 0 0 0 0 0 0 0 0 0 0 0 0 0 0 0 0 0 0 0 0 0 0 0 0 0 0 0 0 0 0 0 0 0 0 0 0 0 0 1 1 0 0 0
0 0 0 0 0 0 0 0 0 0 0 0 0 0 0 0 0 0 0 0 0 0 0 0 0 0 0 0 0 0 0 0 0 0 0 0 0 0 0 0 1 0 0 0
0 0 0 0 0 0 0 0 0 0 0 0 0 0 0 0 0 0 0 0 0 0 0 0 0 0 0 0 0 0 0 0 0 0 0 0 0 1 1 0 0 0 0 0
0 0 0 0 0 0 0 0 0 0 0 0 0 0 0 0 0 0 0 0 0 0 0 0 0 0 0 0 0 0 0 0 0 0 0 0 0 1 1 0 0 0 0 0
0 0 0 0 0 0 0 0 0 0 0 0 0 0 0 0 0 0 0 0 0 0 0 0 0 0 0 0 0 0 0 0 0 0 0 0 0 1 1 0 0 0 0 0
0 0 0 0 0 0 0 0 0 0 0 0 0 0 0 0 0 0 0 0 0 0 0 0 0 0 0 0 0 0 0 0 0 0 0 0 0 0 0 0 0 0 0 0
0 0 0 0 0 0 0 0 0 0 0 0 0 0 0 0 0 0 0 0 0 0 0 0 0 0 0 0 0 0 0 0 0 0 0 0 0 0 0 0 0 0 0 0
0 0 0 0 0 0 0 0 0 0 0 0 0 0 0 0 0 0 0 0 0 0 0 0 0 0 0 0 0 0 0 0 0 0 0 0 0 0 0 0 0 0 0 0
0 0 0 0 0 0 0 0 0 0 0 0 0 0 0 0 0 0 0 0 0 0 0 0 0 0 0 0 0 0 0 0 0 0 0 0 0 0 0 0 0 0 0 0
0 0 0 0 0 0 0 0 0 0 0 0 0 0 0 0 0 0 0 0 0 0 0 0 0 0 0 0 0 0 0 0 0 0 0 0 0 0 0 0 0 0 0 0
0 0 0 0 0 0 0 0 0 0 0 0 0 0 0 0 0 0 0 0 0 0 0 0 0 0 0 0 0 0 0 0 0 0 0 0 0 0 0 0 0 0 0 0
0 0 0 0 0 0 0 0 0 0 0 0 0 0 0 0 0 0 0 0 0 0 0 0 0 0 0 0 0 0 0 0 0 0 0 0 0 0 0 0 0 0 0 0
0 0 0 0 0 0 0 0 0 0 0 0 0 0 0 0 0 0 0 0 0 0 0 0 0 0 0 0 0 0 0 0 0 0 0 0 0 0 0 0 0 0 0 0
0 0 0 0 0 0 0 0 0 0 0 0 0 0 0 0 0 0 0 0 0 0 0 0 0 0 0 0 0 0 0 0 0 0 0 0 0 0 0 0 0 0 0 0
0 0 0 0 0 0 0 0 0 0 0 0 0 0 0 0 0 0 0 0 0 0 0 0 0 0 0 0 0 0 0 0 0 0 0 0 0 0 0 0 0 0 0 0
0 0 0 0 0 0 0 0 0 0 0 0 0 0 0 0 0 0 0 0 0 0 0 0 0 0 0 0 0 0 0 0 0 0 0 0 0 0 0 0 0 0 0 0
0 0 0 0 0 0 0 0 0 0 0 0 0 0 0 0 0 0 0 0 0 0 0 0 0 0 0 0 0 0 0 0 0 0 0 0 0 0 0 0 0 0 0 0
0 0 0 0 0 0 0 0 0 0 0 0 0 0 0 0 0 0 0 0 0 0 0 0 0 0 0 0 0 0 0 0 0 0 0 0 0 0 0 0 0 0 0 0
0 0 0 0 0 0 0 0 0 0 0 0 0 0 0 0 0 0 0 0 0 0 0 0 0 0 0 0 0 0 0 0 0 0 0 0 0 0 0 0 0 0 0 0
Wind_Speed
5 5 7 8 7 4 3 1 3 6 4 6 9 9 8 9 11 12 12 12 13 13 14 13 13 12 12 11 11 10 9 9 7 6 5 5 4 4 5 6 8 8 8 8
6 9 7 4 3 1 0 1 3 6 4 4 7 8 7 8 11 12 13 13 14 15 15 15 14 14 13 12 11 11 10 9 8 6 6 5 6 5 5 6 7 9 10 9
8 7 4 3 5 2 3 3 1 4 6 5 5 5 6 6 9 11 12 13 14 15 16 16 16 15 14 13 12 10 10 10 8 8 6 5 5 5 5 6 6 8 10 9
9 5 3 4 7 6 1 3 1 5 7 3 4 3 6 6 9 13 14 14 15 15 15 15 15 15 14 13 12 11 10 10 8 7 6 6 5 5 5 5 5 6 8 9
7 6 6 6 6 6 4 2 2 5 5 4 0 5 5 6 11 14 15 15 15 15 15 15 15 14 14 13 11 10 10 9 8 7 6 6 5 5 4 4 5 5 5 7
8 4 6 6 2 3 0 4 5 5 6 4 3 4 4 8 12 14 14 15 15 15 15 14 15 14 13 12 11 10 10 9 8 7 6 5 5 5 4 4 3 3 3 3
7 6 4 4 2 2 2 5 5 6 4 2 2 2 5 8 10 11 13 14 14 14 14 14 15 15 14 13 12 11 10 9 9 8 7 6 6 5 5 4 3 2 1 2
5 5 5 6 6 4 3 6 6 5 2 3 2 1 5 6 7 9 10 12 13 13 13 14 14 13 12 12 12 12 10 9 9 8 7 7 6 4 4 4 4 3 1 1
2 6 4 5 5 5 2 3 5 4 0 1 3 2 3 4 8 10 11 12 13 13 13 13 13 13 13 12 12 11 11 10 10 9 8 7 7 7 7 7 6 4 4 3
1 5 4 1 2 6 5 3 3 4 3 1 2 1 3 7 9 10 11 12 12 12 12 12 12 12 11 11 11 12 12 11 11 10 9 7 8 8 8 7 8 7 7 6
1 4 5 3 4 6 2 1 2 1 4 4 0 3 5 5 7 8 10 10 11 11 11 11 10 10 10 10 10 11 11 11 11 10 10 10 9 9 9 9 9 8 7 7
1 1 5 5 4 3 3 4 3 3 2 2 1 4 4 2 4 6 8 9 10 10 10 9 10 10 10 11 11 12 12 12 11 10 10 10 10 10 10 10 9 9 8 8
2 4 4 7 6 4 1 2 2 2 0 1 1 4 4 1 2 4 6 8 8 9 10 9 9 9 9 10 10 11 11 11 10 10 11 11 11 11 11 10 10 10 9 9
3 1 3 4 5 3 3 2 2 4 2 1 0 1 2 0 2 4 5 7 7 8 8 9 9 9 9 9 9 10 10 10 10 10 10 11 11 10 10 10 10 10 10 9
4 3 4 5 3 1 1 3 4 4 3 2 1 2 1 1 1 3 4 5 6 7 8 9 9 8 8 8 9 9 9 9 9 9 10 10 10 10 10 10 10 10 10 10
2 4 5 4 3 3 5 6 6 5 4 4 3 4 3 2 2 2 2 4 6 7 8 8 8 8 8 8 8 9 9 9 9 9 10 9 10 10 10 10 10 10 10 10
4 5 4 3 3 6 7 8 11 7 7 6 6 3 5 4 3 2 2 3 5 6 6 7 7 7 7 7 7 8 8 8 8 9 9 9 10 10 10 10 10 10 9 10
4 4 2 2 4 4 4 3 6 8 8 9 5 4 6 4 2 2 2 3 4 4 5 6 6 5 5 5 6 6 6 7 8 8 9 9 9 9 9 10 10 9 9 9
2 3 3 3 4 4 4 6 7 8 7 12 11 9 8 5 4 4 3 2 3 4 4 5 5 4 4 5 5 5 6 7 7 8 8 8 8 9 9 9 9 8 8 8
2 4 5 4 5 3 3 7 7 5 6 10 13 12 10 9 6 4 4 1 1 2 3 3 3 3 3 4 4 4 6 6 7 7 7 7 8 8 9 9 8 7 6 7
6 6 7 7 6 5 5 9 10 7 1 10 14 13 12 11 3 6 4 2 1 1 2 2 2 2 3 3 3 4 5 6 6 5 6 6 7 7 8 7 7 7 7 7
6 6 6 5 6 3 11 12 10 3 5 9 13 13 13 9 5 5 4 3 2 1 0 1 1 1 1 2 2 3 5 4 4 4 4 5 6 6 6 7 7 7 7 7
7 6 3 6 4 4 13 9 6 3 6 9 12 12 12 11 9 8 6 4 3 1 0 0 1 0 1 1 1 2 4 3 3 3 4 4 5 5 5 6 6 6 6 6
6 5 6 8 9 8 12 11 7 7 7 9 12 13 13 12 11 9 7 6 5 3 1 1 1 1 1 2 1 1 3 3 3 3 3 2 3 4 5 4 5 5 6 6
5 8 7 9 7 5 10 16 14 11 8 10 12 13 14 12 11 10 8 7 5 4 3 2 2 1 1 2 2 2 3 4 3 3 2 1 2 2 3 3 4 4 6 6
9 11 9 7 6 7 5 11 17 15 14 14 14 14 14 12 11 11 8 7 6 5 4 4 3 3 2 2 2 3 3 4 4 2 2 1 0 0 1 1 2 2 1 3
Wind_Direction
45 67 54 33 21 16 7 339 85 89 100 82 96 92 66 42 31 21 14 7 3 358 352 354 348 344 340 338 335 332 328 328 326 317 311 301 283 266 251 241 239 238 238 238
115 71 44 39 44 52 12 236 117 110 110 113 113 95 74 45 30 20 10 4 1 354 351 352 347 344 341 337 333 328 327 327 325 313 300 286 288 276 258 247 239 235 232 229
86 67 44 57 46 39 45 351 121 146 134 142 168 138 73 49 31 24 15 5 360 354 348 347 345 342 339 337 333 328 327 323 323 318 303 294 281 269 258 248 240 235 233 228
81 63 53 61 44 349 82 31 279 188 202 153 250 227 77 20 19 16 9 2 357 353 348 346 342 341 340 338 334 329 327 326 328 323 308 303 293 284 279 271 255 241 235 232
92 56 39 43 33 355 24 354 237 207 215 184 302 279 80 18 7 4 1 358 356 353 350 346 344 341 338 339 336 331 330 331 333 329 317 303 299 295 290 282 264 253 239 234
95 75 33 23 43 18 291 163 148 182 214 208 23 307 52 19 357 349 352 354 355 354 352 351 349 345 344 344 342 338 337 338 341 338 335 330 322 316 312 301 281 260 243 232
123 90 59 360 265 124 263 249 220 203 206 95 41 320 50 16 357 349 348 351 354 356 355 355 352 351 351 350 350 349 347 345 349 351 354 354 351 342 337 328 312 298 261 228
178 112 51 25 5 349 12 313 317 314 348 112 163 20 60 17 359 356 357 358 359 358 357 356 354 353 353 353 357 357 355 354 357 360 2 8 12 1 359 354 351 351 330 273
166 107 97 50 28 332 325 31 348 318 9 203 120 103 122 19 8 7 5 6 5 1 1 358 357 359 358 359 2 1 2 6 5 6 10 15 14 18 21 22 24 24 28 32
70 121 103 124 199 63 20 359 261 279 285 248 141 101 8 4 2 1 3 3 1 358 1 1 0 0 2 2 7 12 15 15 16 16 17 19 22 29 33 33 33 32 30 32
254 139 129 141 37 19 24 68 23 23 331 314 3 83 40 356 352 349 355 -0 360 359 360 2 5 5 9 12 14 18 19 19 17 18 20 24 24 27 34 35 33 32 35 39
4 268 119 98 80 15 20 15 313 310 77 340 339 91 82 351 342 343 347 356 1 2 4 8 10 11 15 17 19 21 21 21 20 21 24 27 29 33 35 33 31 33 36 39
171 229 169 164 168 174 125 63 2 341 178 236 292 96 111 338 351 357 351 356 359 5 11 14 15 15 15 17 19 21 22 21 22 24 28 30 32 32 32 30 31 33 34 36
258 252 330 21 68 119 151 166 215 261 269 178 227 101 132 14 358 1 357 358 360 7 11 13 15 18 19 20 21 23 24 23 24 27 29 32 33 34 35 34 35 36 35 36
250 119 100 90 104 164 208 202 211 245 290 290 152 214 189 156 341 345 346 354 1 9 13 14 15 18 19 21 22 24 25 25 27 31 33 31 33 36 37 38 39 40 38 37
215 150 157 159 180 238 251 226 218 229 229 229 220 224 185 194 241 292 345 357 2 7 10 10 14 18 19 23 24 25 25 26 29 34 35 32 32 34 35 36 37 38 37 36
174 180 218 183 185 254 248 217 207 211 210 213 218 183 167 196 218 280 336 342 353 1 4 6 11 17 16 21 22 26 25 27 33 37 35 32 33 33 33 34 36 35 38 38
183 189 244 251 230 253 82 101 201 217 221 215 220 183 189 199 210 260 291 317 340 357 357 1 4 15 18 24 26 29 34 34 39 38 36 32 30 33 34 35 34 31 34 38
268 214 240 264 273 271 171 182 190 212 233 210 209 199 191 188 218 204 187 273 327 341 344 349 351 360 15 24 18 26 42 44 43 38 34 32 32 32 31 31 30 29 29 34
176 235 248 247 273 265 117 148 171 208 242 191 196 193 184 191 212 146 140 189 295 332 342 347 344 354 28 34 21 26 43 47 46 40 37 37 35 31 30 28 25 28 31 31
191 204 229 243 261 266 122 145 169 214 68 159 184 186 185 197 183 113 145 173 219 324 349 336 343 24 31 26 20 38 48 53 52 48 46 42 40 38 32 28 26 28 33 33
214 205 213 218 235 245 143 163 201 226 105 165 178 182 184 186 161 160 177 181 194 198 25 341 348 61 54 17 13 58 61 67 72 70 62 52 43 36 36 35 31 32 30 34
225 228 233 228 256 59 177 196 207 201 180 175 176 178 180 182 183 185 188 187 188 201 175 325 318 133 114 86 11 57 95 115 115 98 78 64 58 47 37 34 33 34 32 30
204 210 238 252 250 225 210 216 209 207 199 181 178 176 181 184 185 186 189 189 191 196 193 222 221 192 120 100 102 82 129 163 162 127 102 83 62 55 51 36 31 31 27 25
210 186 222 247 253 227 221 217 209 200 198 184 181 181 184 186 186 187 190 192 194 193 193 212 219 183 147 148 147 148 170 189 189 161 146 123 71 40 35 50 35 24 43 25
196 196 205 234 220 211 207 201 200 195 194 189 184 184 188 190 189 190 192 189 193 196 195 199 195 201 191 174 162 161 185 208 216 196 177 175 165 21 352 13 105 131 38 51